This demonstration page uses our WeatherBlox Daily Observations layout. Learn more.

Left ArrowRight Arrow

34.74481, -87.66753

Hourly Observations for December 13, 2017

Temp ( °F °C ) Dew Point ( °F °C ) Humidity (%) Winds ( mph kmh ) Pressure ( in mb ) Visibility ( mi km ) Precip ( " mm )
12:53 am 00:53 Clear 28 -2.2 16 -8.9 60 60 WNW 3 6 30.14 1021 10 16 0.00 0.00
1:53 am 01:53 Clear 25 -3.9 20 -6.7 81 81 Calm 30.14 1021 10 16 0.00 0.00
2:53 am 02:53 Clear 24 -4.4 19 -7.2 81 81 Calm 30.12 1020 10 16 0.00 0.00
3:53 am 03:53 Clear 25 -3.9 19 -7.2 78 78 Calm 30.10 1019 10 16 0.00 0.00
4:53 am 04:53 Clear 24 -4.4 20 -6.7 84 84 Calm 30.09 1019 10 16 0.00 0.00
5:53 am 05:53 Clear 23 -5 18 -7.8 81 81 Calm 30.09 1019 10 16 0.00 0.00
6:53 am 06:53 Sunny 23 -5 18 -7.8 81 81 SSE 3 6 30.09 1019 10 16 0.00 0.00
7:53 am 07:53 Sunny 28 -2.2 20 -6.7 72 72 S 5 7 30.07 1018 10 16 0.00 0.00
8:53 am 08:53 Sunny 36 2.2 17 -8.3 46 46 SSW 7 11 30.07 1018 10 16 0.00 0.00
9:53 am 09:53 Sunny 42 5.6 17 -8.3 36 36 SSW 13 20 30.05 1018 10 16 0.00 0.00
10:53 am 10:53 Sunny 46 7.8 16 -8.9 30 30 SW 14 22 30.01 1016 10 16 0.00 0.00
11:53 am 11:53 Sunny 49 9.4 17 -8.3 28 28 SW 16 26 29.95 1014 10 16 0.00 0.00
12:53 pm 12:53 Sunny 51 10.6 17 -8.3 26 26 WSW 17 28 29.90 1013 10 16 0.00 0.00
1:53 pm 13:53 Sunny 53 11.7 19 -7.2 26 26 SSW 16 26 29.87 1012 10 16 0.00 0.00
2:53 pm 14:53 Sunny 53 11.7 18 -7.8 25 25 SW 21 33 29.84 1011 10 16 0.00 0.00
3:53 pm 15:53 Sunny 53 11.7 20 -6.7 27 27 SW 20 31 29.82 1010 10 16 0.00 0.00
4:53 pm 16:53 Clear 49 9.4 22 -5.6 35 35 SSW 8 13 29.83 1010 10 16 0.00 0.00
5:53 pm 17:53 Clear 47 8.3 23 -5 39 39 SSW 7 11 29.83 1010 10 16 0.00 0.00
6:53 pm 18:53 Clear 44 6.7 23 -5 43 43 SSW 8 13 29.84 1011 10 16 0.00 0.00
7:53 pm 19:53 Clear 45 7.2 24 -4.4 44 44 SW 10 17 29.83 1010 10 16 0.00 0.00
8:53 pm 20:53 Clear 45 7.2 23 -5 42 42 W 9 15 29.85 1011 10 16 0.00 0.00
9:53 pm 21:53 Clear 45 7.2 24 -4.4 44 44 SW 8 13 29.85 1011 10 16 0.00 0.00
10:53 pm 22:53 Clear 48 8.9 24 -4.4 39 39 W 12 19 29.85 1011 10 16 0.00 0.00
11:53 pm 23:53 Clear 47 8.3 24 -4.4 41 41 W 14 22 29.85 1011 10 16 0.00 0.00

Powered by AerisWeather